This demonstration page uses our WeatherBlox Daily Observations layout. Learn more.

Left ArrowRight Arrow

44.89941, -97.11507

Hourly Observations for October 29, 2021

Temp ( °F °C ) Dew Point ( °F °C ) Humidity (%) Winds ( mph kmh ) Pressure ( in mb ) Visibility ( mi km ) Precip ( " mm )
12:53 am 00:53 Clear 36 2.2 34 1.1 93 93 N 8 13 30.06 1018 10 16 N/A
1:53 am 01:53 Clear 34 1.1 33 0.6 97 97 N 6 9 30.06 1018 10 16 N/A
2:53 am 02:53 Clear 32 undefined 31 -0.6 96 96 N 9 15 30.06 1018 10 16 N/A
3:53 am 03:53 Clear 32 undefined 31 -0.6 96 96 N 7 11 30.06 1018 10 16 N/A
4:53 am 04:53 Clear 34 1.1 32 undefined 92 92 NNW 3 6 30.07 1018 10 16 N/A
5:53 am 05:53 Clear 34 1.1 32 undefined 92 92 N N/A 30.06 1018 10 16 N/A
6:53 am 06:53 Clear 34 1.1 33 0.6 97 97 N 3 6 30.08 1019 10 16 N/A
7:53 am 07:53 Clear 33 0.6 32 undefined 96 96 NNW 5 7 30.09 1019 10 16 N/A
8:53 am 08:53 Sunny 33 0.6 33 0.6 100 100 N N/A 30.09 1019 10 16 N/A
9:53 am 09:53 Sunny 41 5 38 3.3 89 89 N N/A 30.09 1019 10 16 N/A
10:53 am 10:53 Sunny 48 8.9 38 3.3 68 68 N N/A 30.08 1019 10 16 N/A
11:53 am 11:53 Sunny 52 11.1 36 2.2 55 55 N N/A 30.07 1018 10 16 N/A
12:53 pm 12:53 Sunny 54 12.2 35 1.7 49 49 N N/A 30.05 1018 10 16 N/A
1:53 pm 13:53 Sunny 57 13.9 31 -0.6 37 37 WNW 5 7 30.02 1017 8 13 N/A
2:53 pm 14:53 Sunny 57 13.9 33 0.6 41 41 S 6 9 30.00 1016 10 16 N/A
3:45 pm 15:45 Hazy 58 14.4 34 1.1 41 41 SW 8 13 29.94 1014 2 3 N/A
3:53 pm 15:53 Hazy 58 14.4 34 1.1 41 41 SW 8 13 29.99 1016 1 2 N/A
4:12 pm 16:12 Hazy 57 13.9 31 -0.6 37 37 SW 8 13 29.94 1014 2 3 N/A
4:27 pm 16:27 Hazy 57 13.9 33 0.6 41 41 WSW 8 13 29.94 1014 2 3 N/A
4:53 pm 16:53 Hazy 56 13.3 35 1.7 46 46 WSW 8 13 29.98 1015 2 3 N/A
5:21 pm 17:21 Hazy 55 12.8 36 2.2 49 49 WSW 7 11 29.94 1014 2 2 N/A
5:53 pm 17:53 Hazy 50 10 37 2.8 61 61 SW 6 9 29.97 1015 2 3 N/A
6:25 pm 18:25 Hazy 50 10 35 1.7 57 57 SW 5 7 29.94 1014 3 5 N/A
6:53 pm 18:53 Clear 45 7.2 34 1.1 66 66 SW 3 6 29.96 1015 10 16 N/A
7:53 pm 19:53 Clear 43 6.1 35 1.7 74 74 SSE 3 6 29.96 1015 10 16 N/A
8:53 pm 20:53 Clear 43 6.1 36 2.2 76 76 SE 3 6 29.94 1014 10 16 N/A
9:53 pm 21:53 Clear 43 6.1 35 1.7 74 74 SE 3 6 29.93 1013 10 16 N/A
10:53 pm 22:53 Clear 41 5 35 1.7 79 79 SSE 3 6 29.91 1013 10 16 N/A
11:53 pm 23:53 Clear 41 5 35 1.7 79 79 SSE 6 9 29.88 1012 10 16 N/A

Powered by AerisWeather